Location: Carthage
(33.8834°N, 106.6595°W)
Time: 02:29:26
(UTC+00:00)

Cosmos 1937 Rocket - Visible Passes

Search period start: 16 May 2026 00:00
Search period end: 26 May 2026 00:00
Orbit: 742 x 775 km, 74.0° (Epoch: 15 May)

Date Brightness Start Highest point End Pass type
(mag) Time Alt. Az. Time Alt. Az. Time Alt. Az.
16 May 5.5 06:48:23 10° NNW 06:50:24 24° NNW 06:50:24 24° NNW visible
17 May 5.2 06:08:36 10° N 06:11:08 28° N 06:11:08 28° N visible
18 May 5.3 05:29:13 10° N 05:31:53 22° NE 05:31:53 22° NE visible
18 May 5.9 07:10:56 10° NW 07:11:56 15° NW 07:11:56 15° NW visible
19 May 5.6 04:50:35 10° NNE 04:52:40 14° NE 04:52:40 14° NE visible
19 May 5.4 06:30:30 10° NNW 06:32:43 25° NW 06:32:43 25° NW visible
20 May 4.8 05:50:31 10° NNW 05:53:31 36° N 05:53:31 36° N visible
21 May 4.7 05:10:54 10° N 05:14:21 32° NE 05:14:21 32° NE visible
21 May 6.0 06:53:32 10° NW 06:54:24 13° WNW 06:54:24 13° WNW visible
22 May 5.2 04:31:46 10° NNE 04:35:11 20° ENE 04:35:11 20° ENE visible
22 May 5.3 06:12:44 10° NW 06:15:15 26° NW 06:15:15 26° NW visible
23 May 5.7 03:54:17 10° NE 03:55:13 10° ENE 03:56:04 10° ENE visible
23 May 4.3 05:32:31 10° NNW 05:36:08 46° NNW 05:36:08 46° NNW visible
24 May 3.9 04:52:42 10° N 04:57:02 50° NE 04:57:02 50° NE visible
24 May 6.1 06:36:37 10° WNW 06:37:06 11° WNW 06:37:06 11° WNW visible
25 May 4.6 04:13:16 10° N 04:17:40 28° ENE 04:17:57 28° ENE visible
25 May 5.3 05:55:07 10° NW 05:58:01 24° WNW 05:58:01 24° WNW visible
